Regional Weather Roundup
Issued by NWS

Home | Current Version | Previous Version | Graphics & Text | Print | Product List | Glossary On
Versions: 1 2 3 4 5 6 7 8 9 10 11 12 13 14 15 16 17 18 19 20 21 22 23 24 25 26 27 28 29 30 31 32 33 34 35 36 37 38 39 40 41 42 43 44 45 46 47 48 49 50
000
ASUS43 KMPX 170101
RWRMN
WEATHER ROUNDUP FOR MINNESOTA
NATIONAL WEATHER SERVICE TWIN CITIES/CHANHASSEN MN
700 PM CST THU NOV 16 2017


NOTE: "FAIR" INDICATES FEW OR NO CLOUDS BELOW 12,000 FEET WITH NO
SIGNIFICANT WEATHER AND/OR OBSTRUCTIONS TO VISIBILITY. N/A MEANS
CURRENT SKY AND/OR WEATHER CONDITIONS ARE NOT AVAILABLE.

MNZ060>063-068>070-170200-
   Twin Cities Metro

CITY           SKY/WX    TMP DP  RH WIND       PRES   REMARKS
TWIN CITIES    CLOUDY    33  27  78 SE15      30.06F WCI  23
ST PAUL        CLOUDY    32  26  78 SE14      30.08F WCI  22
CRYSTAL        CLOUDY    32  23  69 SE13G22   30.03F WCI  22
BLAINE         CLOUDY    34  27  75 SE13G18   30.04F WCI  25
LAKEVILLE      CLOUDY    30  27  86 SE10      30.05F WCI  21
EDEN PRAIRIE   CLOUDY    33  26  75 SE17      30.02F WCI  22
SOUTH ST PAUL  CLOUDY    32  26  76 SE7       30.06F WCI  26
LAKE ELMO      CLOUDY    32  27  80 SE10G17   30.08F WCI  24
$$
MNZ001>005-007-008-013>017-022>024-027-028-170200-
   Northwest Minnesota

CITY           SKY/WX    TMP DP  RH WIND       PRES   REMARKS
BEMIDJI        CLOUDY    27  22  80 SE22G29   29.87F WCI  13
HALLOCK        CLOUDY    28  25  86 CALM      29.72F
ROSEAU         CLOUDY    28  21  74 SE20G25   29.79F WCI  15
WARROAD        CLOUDY    27  21  80 SE14G26   29.83F WCI  15
CROOKSTON      CLOUDY    32  25  74 S20       29.77S WCI  20
FOSSTON        CLOUDY    27  21  80 SE20G32   29.78F WCI  13
DETROIT LAKES  CLOUDY    30  27  86 SE20G28   29.83F WCI  18
MOORHEAD       CLOUDY    32  25  74 S25G37    29.79F WCI  19
PARK RAPIDS    CLOUDY    28  21  75 SE18G28   29.89F WCI  15
MAHNOMEN       FAIR      29  22  75 SE23G31   29.79F WCI  16
$$
MNZ006-009>011-018-025>026-170200-
   North Central Minnesota

CITY           SKY/WX    TMP DP  RH WIND       PRES   REMARKS
BAUDETTE       CLOUDY    26  21  81 SE20G26   29.87F WCI  12
FLAG ISLAND    CLOUDY    25  19  80 SE18G26   29.85F WCI  11
INTL FALLS     CLOUDY    26  20  77 SE17G25   29.97F WCI  13
WASKISH        CLOUDY    27  21  80 SE16G25   29.87F WCI  14
BIG FORK       CLOUDY    27  21  80 SE12G21   29.95F WCI  16
LONGVILLE      CLOUDY    27  21  80 SE8G21    29.95F WCI  18
GRAND RAPIDS   CLOUDY    26  22  84 SE13G21   29.98F WCI  15
CRANE LAKE     CLOUDY    25  21  86 SE5       30.05S WCI  19
ORR            CLOUDY    25  21  86 SE7G20    29.98F WCI  17
COOK           CLOUDY    25  23  93 SE6       30.02S WCI  18
WALKER         CLOUDY    27  22  79 SE14G22   29.91F WCI  16
$$
MNZ012-019>021-037-170200-
   Northeast Minnesota

CITY           SKY/WX    TMP DP  RH WIND       PRES   REMARKS
DULUTH         CLOUDY    26  23  88 SE15      30.05S WCI  14
ELY            CLOUDY    25  25 100 SE13      30.03F WCI  13
HIBBING        CLOUDY    25  21  85 SE15      30.02F WCI  13
EVELETH        CLOUDY    25  19  80 SE14      30.04S WCI  13
DULUTH HARBOR  CLOUDY    30  27  86 E13       30.12R WCI  20
TWO HARBORS    CLOUDY    30  25  80 E10G17    30.08F WCI  21
SILVER BAY     CLOUDY    28  27  93 E9G21     30.09F FOG     WCI  20
GRAND MARAIS     N/A     30  24  78 E14G21    30.20F WCI  19
G MARAIS ARPRT CLOUDY    19  18  93 E10       30.11F WCI   8
$$
MNZ029>031-032-039>041-046>048-054>057-064-170200-
   West Central Minnesota

CITY           SKY/WX    TMP DP  RH WIND       PRES   REMARKS
FERGUS FALLS   CLOUDY    30  25  80 SE26      29.84F WCI  16
WHEATON        CLOUDY    28  25  86 SE21G31   29.84F WCI  15
MORRIS         CLOUDY    30  27  86 SE26G32   29.84F WCI  16
ALEXANDRIA     CLOUDY    29  25  85 SE20G31   29.89F WCI  16
ELBOW LAKE     FAIR      29  26  86 E20G30    29.84F WCI  17
WADENA         CLOUDY    27  21  80 SE21      29.89S WCI  13
GLENWOOD       CLOUDY    28  27  93 SE22G28   29.89F WCI  15
APPLETON       CLOUDY    30  27  86 SE15G21   29.87F WCI  19
BENSON         CLOUDY    30  27  86 S17G25    29.90F WCI  18
ORTONVILLE     CLOUDY    28  25  86 MISG      29.82F
MADISON        CLOUDY    32  28  86 SE20G26   29.86S WCI  20
WILLMAR        FAIR      30  28  93 SE20G26   29.93S WCI  18
$$
MNZ033>034-036-042>043-049>051-058-059-170200-
   Central Minnesota

CITY           SKY/WX    TMP DP  RH WIND       PRES   REMARKS
ST CLOUD       CLOUDY    30  24  78 SE14G21   29.99F WCI  19
SAUK CENTRE    CLOUDY    29  25  86 SE17G28   29.94S WCI  17
PAYNESVILLE    CLOUDY    30  28  91 SE10      29.96R WCI  21
AITKIN         CLOUDY    27  21  80 SE10G20   29.97F WCI  17
PINE RIVER     CLOUDY    27  21  80 SE14G23   29.97F WCI  15
BRAINERD       CLOUDY    30  22  72 SE13G24   29.96F WCI  20
STAPLES        CLOUDY    27  21  80 SE15G21   29.92F WCI  15
LONG PRAIRIE   CLOUDY    28  25  86 E15G23    29.94S WCI  17
LITTLE FALLS   CLOUDY    30  19  64 SE14      29.98S WCI  20
LITCHFIELD     CLOUDY    30  28  93 SE18      29.97F WCI  18
BUFFALO        CLOUDY    32  26  78 E14G21    30.01F WCI  22
MAPLE LAKE     CLOUDY    32  28  86 SE8G18    30.01S WCI  25
HUTCHINSON     CLOUDY    31  28  88 SE16G22   29.98F WCI  20
$$
MNZ037-044-045-052-053-170200-
   East Central Minnesota

CITY           SKY/WX    TMP DP  RH WIND       PRES   REMARKS
PRINCETON      CLOUDY    32  25  74 SE12G18   30.01F WCI  23
MORA           CLOUDY    32  27  80 SE9G17    30.05F WCI  24
CAMBRIDGE      CLOUDY    34  23  64 SE7G17    30.03F WCI  28
RUSH CITY      CLOUDY    31  24  74 SE9G18    30.06F WCI  23
MOOSE LAKE     CLOUDY    30  23  74 S9        30.04S WCI  22
HINCKLEY       CLOUDY    32  25  74 SE8       30.06F WCI  25
CLOQUET        CLOUDY    27  21  80 E8        30.05S WCI  18
MCGREGOR       CLOUDY    28  23  80 SE14      30.01F WCI  17
$$
MNZ071>073-080-081-089-090-097-098-170200-
   Southwest Minnesota

CITY           SKY/WX    TMP DP  RH WIND       PRES   REMARKS
MONTEVIDEO     CLOUDY    30  27  86 S15       29.89R WCI  19
GRANITE FALLS  CLOUDY    32  28  85 SE18G28   29.90S WCI  20
CANBY          PTCLDY    32  27  81 E14G22    29.85S WCI  22
MARSHALL       CLOUDY    30  26  85 SE14      29.88S WCI  19
REDWOOD FALLS  CLOUDY    31  25  78 SE21      29.92F WCI  18
OLIVIA         CLOUDY    32  28  86 SE17G25   29.92F WCI  21
PIPESTONE      CLOUDY    30  25  80 S17G26    29.82F WCI  18
WINDOM           N/A     30  18  59 SE22G28   29.90F WCI  17
WORTHINGTON    CLOUDY    29  25  85 SE22G29   29.85F WCI  15
JACKSON        CLOUDY    30  27  86 SE16G23   29.93F WCI  19
SLAYTON        CLOUDY    29  26  88 SE22G28   29.86S WCI  16
$$
MNZ065>067-074>077-082>085-091>093-170200-
   South Central Minnesota

CITY           SKY/WX    TMP DP  RH WIND       PRES   REMARKS
MANKATO        CLOUDY    31  27  85 SE16      30.00F WCI  20
NEW ULM        CLOUDY    30  25  80 SE12G21   29.96F WCI  21
ST JAMES       CLOUDY    30  27  86 SE17G23   29.96F WCI  18
FAIRMONT       CLOUDY    31  27  85 SE21      29.98F WCI  18
GLENCOE        CLOUDY    32  28  86 SE17      29.99F WCI  21
FARIBAULT      CLOUDY    32  27  80 SE13G20   30.04F WCI  22
OWATONNA       PTCLDY    32  27  80 SE16      30.04F WCI  21
WASECA         CLOUDY    32  28  86 SE16G24   30.04F WCI  21
ALBERT LEA     CLOUDY    30  25  80 SE20G25   30.03F WCI  18
$$
MNZ078>079-086>088-094>096-170200-
   Southeast Minnesota

CITY           SKY/WX    TMP DP  RH WIND       PRES   REMARKS
ROCHESTER      CLOUDY    31  27  85 SE15      30.06F WCI  20
RED WING       CLOUDY    34  23  64 SE9       30.09F WCI  26
STANTON        CLOUDY    34  27  77 SE9       30.05F WCI  26
DODGE CENTER   CLOUDY    30  27  86 SE14      30.06S WCI  20
WINONA         CLOUDY    34  27  75 SE10G17   30.12F WCI  26
AUSTIN         CLOUDY    30  27  86 S9        30.06F WCI  22
PRESTON        CLOUDY    31  26  80 SE12G18   30.09F WCI  22
$$
ABBREVIATIONS USED IN REMARKS
   TC - TEMPERATURES IN CELSIUS
  WCI - WIND CHILL INDEX
   HX - HEAT INDEX
  VSB - VISIBILITY
$$




USA.gov is the U.S. government's official web portal to all federal, state and local government web resources and services.